Location: Poughquag
(41.6090°N, 73.6820°W)
Time: 14:10:56
(UTC-04:00)

Altair - Pass Details

Date: 03 June 2020
Orbit: 1501 x 1683 km, 47.2° (Epoch: 05 July)

Event Time Altitude Azimuth Distance (km) Brightness Sun altitude
Rises 01:34:33 0° 282° (WNW) 4,892 10.2 -25.3°
Reaches altitude 10° 01:37:45 10° 286° (WNW) 3,920 9.7 -25.2°
Maximum altitude 01:47:49 66° 8° (N) 1,811 8.0 -24.8°
Drops below altitude 10° 01:57:56 10° 90° (E) 3,932 9.8 -24.3°
Sets 02:01:08 0° 93° (E) 4,907 10.3 -24.1°
